IK0TIX Weather Reports


time (UTC)temp
F
wind
direction
speed
knots
gust
knots
rain 1hr
in
rain 24hr
in
rain mn
in
humidity
%
barometer
mb
20260504002459 60 256 0.0 0.0 0.00 0.00 0.00 76 1019.8
20260504001928 60 256 0.0 0.0 0.00 0.00 0.00 77 1019.8
20260504001454 60 256 0.0 0.0 0.00 0.00 0.00 76 1019.8
20260504000944 60 256 0.0 0.0 0.00 0.00 0.00 76 1019.8
20260504000441 60 256 0.0 0.0 0.00 0.00 0.00 76 1019.9
20260503235959 60 256 0.0 0.0 0.00 0.00 0.00 76 1020.0
20260503235436 61 256 0.0 0.0 0.00 0.00 0.00 76 1020.1
20260503234934 61 256 0.0 0.0 0.00 0.00 0.00 76 1020.1
20260503234428 61 256 0.0 0.0 0.00 0.00 0.00 76 1020.2
20260503234000 61 256 0.0 0.0 0.00 0.00 0.00 76 1020.2
20260503233506 61 256 0.0 0.0 0.00 0.00 0.00 76 1020.3
20260503232953 61 256 0.0 0.0 0.00 0.00 0.00 75 1020.3
20260503232430 61 256 0.0 0.0 0.00 0.00 0.00 75 1020.4
20260503231941 61 256 0.0 0.0 0.00 0.00 0.00 75 1020.5
20260503231439 61 256 0.0 0.0 0.00 0.00 0.00 76 1020.5
20260503230947 61 256 0.0 0.0 0.00 0.00 0.00 75 1020.6
20260503230445 61 256 0.0 0.0 0.00 0.00 0.00 75 1020.6
20260503225929 62 256 0.0 0.0 0.00 0.00 0.00 75 1020.5
20260503225454 62 256 0.0 0.0 0.00 0.00 0.00 75 1020.6
20260503225008 62 256 0.0 0.0 0.00 0.00 0.00 74 1020.6
20260503224444 62 256 0.0 0.0 0.00 0.00 0.00 74 1020.6
20260503223935 62 256 0.0 0.0 0.00 0.00 0.00 74 1020.7
20260503223440 62 256 0.0 0.0 0.00 0.00 0.00 74 1020.7
20260503223002 62 256 0.0 0.0 0.00 0.00 0.00 75 1020.7
20260503222448 62 256 0.0 0.0 0.00 0.00 0.00 75 1020.8
20260503221941 62 256 0.0 0.0 0.00 0.00 0.00 75 1020.8
20260503221439 62 256 0.0 0.0 0.00 0.00 0.00 75 1020.8
20260503220953 62 256 0.0 0.0 0.00 0.00 0.00 74 1020.8
20260503220446 62 256 0.0 0.0 0.00 0.00 0.00 74 1020.7
20260503215937 62 256 0.0 0.0 0.00 0.00 0.00 74 1020.7
20260503215435 62 256 0.0 0.0 0.00 0.00 0.00 74 1020.7
20260503215003 62 256 0.0 0.0 0.00 0.00 0.00 74 1020.7
20260503214440 62 256 0.0 0.0 0.00 0.00 0.00 74 1020.7
20260503213932 63 256 0.0 0.0 0.00 0.00 0.00 73 1020.6
20260503213459 63 256 0.0 0.0 0.00 0.00 0.00 72 1020.6
20260503212930 63 256 0.0 0.0 0.00 0.00 0.00 72 1020.6
20260503212428 63 256 0.0 0.0 0.00 0.00 0.00 72 1020.5
20260503211943 63 256 0.0 0.0 0.00 0.00 0.00 73 1020.5
20260503211440 64 256 0.0 0.0 0.00 0.00 0.00 72 1020.5
20260503210934 64 256 0.0 0.0 0.00 0.00 0.00 72 1020.5
20260503210428 64 256 0.0 0.0 0.00 0.00 0.00 72 1020.5
20260503205958 64 256 0.0 0.0 0.00 0.00 0.00 72 1020.4
20260503205504 64 256 0.0 0.0 0.00 0.00 0.00 72 1020.4
20260503204935 64 256 0.0 0.0 0.00 0.00 0.00 72 1020.4
20260503204501 64 256 0.0 0.0 0.00 0.00 0.00 71 1020.4
20260503203932 64 256 0.0 0.0 0.00 0.00 0.00 72 1020.5
20260503203436 64 256 0.0 0.0 0.00 0.00 0.00 71 1020.5
20260503202946 64 256 0.0 0.0 0.00 0.00 0.00 71 1020.5
20260503202444 64 256 0.0 0.0 0.00 0.00 0.00 71 1020.5
20260503202021 65 256 0.0 0.0 0.00 0.00 0.00 71 1020.5
20260503201504 65 256 0.0 0.0 0.00 0.00 0.00 71 1020.5
20260503200951 65 256 0.0 0.0 0.00 0.00 0.00 71 1020.4
20260503200444 65 256 0.0 0.0 0.00 0.00 0.00 71 1020.4
20260503195936 65 256 0.0 0.0 0.00 0.00 0.00 71 1020.4
20260503195433 65 256 0.0 0.0 0.00 0.00 0.00 71 1020.3
20260503194947 65 256 0.0 0.0 0.00 0.00 0.00 71 1020.3
20260503194445 65 256 0.0 0.0 0.00 0.00 0.00 71 1020.2
20260503193954 65 256 0.0 0.0 0.00 0.00 0.00 71 1020.3
20260503193440 65 256 0.0 0.0 0.00 0.00 0.00 71 1020.2
20260503192941 65 256 0.0 0.9 0.00 0.00 0.00 71 1020.1
20260503192430 65 256 0.0 1.7 0.00 0.00 0.00 71 1020.1
20260503191943 65 256 0.0 3.5 0.00 0.00 0.00 71 1020.1
20260503191447 65 256 0.9 3.5 0.00 0.00 0.00 71 1020.0
20260503190939 65 256 0.0 2.6 0.00 0.00 0.00 71 1019.9
20260503190436 65 256 0.9 2.6 0.00 0.00 0.00 71 1019.8
20260503185928 65 256 0.9 3.5 0.00 0.00 0.00 71 1019.8
20260503185451 65 256 1.7 3.5 0.00 0.00 0.00 71 1019.6
20260503184942 65 256 0.0 6.1 0.00 0.00 0.00 71 1019.6
20260503184440 65 256 1.7 6.1 0.00 0.00 0.00 71 1019.6
20260503183936 65 258 0.9 7.0 0.00 0.00 0.00 71 1019.6
20260503183504 65 260 2.6 6.1 0.00 0.00 0.00 70 1019.5
20260503182929 65 254 0.9 7.8 0.00 0.00 0.00 70 1019.5
20260503182453 65 254 4.3 7.8 0.00 0.00 0.00 69 1019.5
20260503181940 65 254 3.5 10.4 0.00 0.00 0.00 69 1019.5
20260503181432 65 281 6.1 10.4 0.00 0.00 0.00 69 1019.5
20260503180945 65 262 4.3 10.4 0.00 0.00 0.00 68 1019.5
20260503180442 66 263 5.2 13.0 0.00 0.00 0.00 67 1019.5
20260503175955 66 240 5.2 10.4 0.00 0.00 0.00 66 1019.4
20260503175452 66 281 6.1 11.3 0.00 0.00 0.00 65 1019.3
20260503175015 67 284 3.5 12.2 0.00 0.00 0.00 64 1019.3
20260503174451 67 258 6.1 13.0 0.00 0.00 0.00 63 1019.3
20260503173938 67 242 7.0 13.0 0.00 0.00 0.00 63 1019.3
20260503173436 68 304 4.3 11.3 0.00 0.00 0.00 61 1019.2
20260503172929 68 245 4.3 12.2 0.00 0.00 0.00 59 1019.1
20260503172427 69 294 6.1 12.2 0.00 0.00 0.00 58 1019.2
20260503171941 70 238 2.6 13.9 0.00 0.00 0.00 56 1019.1
20260503171439 71 238 8.7 13.9 0.00 0.00 0.00 56 1019.0
20260503170930 72 244 7.0 12.2 0.00 0.00 0.00 54 1018.9
20260503170427 72 254 6.1 12.2 0.00 0.00 0.00 53 1018.9
20260503151009 71 265 2.6 8.7 0.00 0.00 0.00 54 1019.4
20260503150443 71 308 4.3 12.2 0.00 0.00 0.00 53 1019.5
20260503130940 72 283 4.3 14.8 0.00 0.00 0.00 48 1020.6
20260503130438 73 253 7.0 16.5 0.00 0.00 0.00 48 1020.7
20260503110435 75 219 7.8 15.6 0.00 0.00 0.00 37 1020.7
20260503090434 70 284 2.6 7.0 0.00 0.00 0.00 49 1021.6
20260503081434 67 300 0.0 6.1 0.00 0.00 0.00 57 1021.8
20260503080942 66 299 3.5 6.1 0.00 0.00 0.00 58 1021.8
20260503080429 66 294 0.9 6.1 0.00 0.00 0.00 60 1021.8
20260503072931 63 28 0.0 1.7 0.00 0.00 0.00 65 1022.1
20260503072427 62 28 0.0 2.6 0.00 0.00 0.00 66 1022.2
20260503071941 62 28 0.0 2.6 0.00 0.00 0.00 66 1022.2
20260503071440 61 28 0.9 2.6 0.00 0.00 0.00 67 1022.1
20260503070934 61 28 0.9 3.5 0.00 0.00 0.00 68 1022.1
20260503070432 61 27 0.9 3.5 0.00 0.00 0.00 68 1022.1
20260503055007 56 28 0.9 3.5 0.00 0.00 0.00 71 1022.1
20260503054504 56 28 0.0 2.6 0.00 0.00 0.00 71 1022.0
20260503053934 56 28 0.9 2.6 0.00 0.00 0.00 71 1022.0
20260503053434 56 28 0.0 3.5 0.00 0.00 0.00 72 1022.0
20260503052928 55 28 0.9 3.5 0.00 0.00 0.00 71 1022.0
20260503052427 55 28 1.7 4.3 0.00 0.00 0.00 71 1022.0
20260503051941 55 28 0.9 4.3 0.00 0.00 0.00 71 1021.9
20260503051434 55 28 1.7 4.3 0.00 0.00 0.00 70 1021.9
20260503050946 55 27 0.9 4.3 0.00 0.00 0.00 71 1021.9
20260503050441 55 28 1.7 4.3 0.00 0.00 0.00 70 1021.8
20260503045933 55 34 0.9 3.5 0.00 0.00 0.00 71 1021.9
20260503045501 55 38 0.9 2.6 0.00 0.00 0.00 71 1021.8
20260503044932 55 44 0.0 3.5 0.00 0.00 0.00 73 1021.8
20260503044457 55 44 0.9 3.5 0.00 0.00 0.00 72 1021.7
20260503043954 55 326 1.7 3.5 0.00 0.00 0.00 72 1021.7
20260503043429 55 229 0.9 3.5 0.00 0.00 0.00 73 1021.7
20260503042933 56 229 1.7 3.5 0.00 0.00 0.00 74 1021.7
20260503042429 56 236 0.0 0.9 0.00 0.00 0.00 74 1021.7
20260503041943 56 236 0.0 0.0 0.00 0.00 0.00 73 1021.7
20260503041509 56 235 0.0 0.0 0.00 0.00 0.00 74 1021.7
20260503040937 56 235 0.0 0.0 0.00 0.00 0.00 74 1021.6
20260503040505 56 235 0.0 0.0 0.00 0.00 0.00 74 1021.6
20260503035937 57 235 0.0 0.0 0.00 0.00 0.00 74 1021.7
20260503035444 57 235 0.0 0.0 0.00 0.00 0.00 75 1021.6
20260503034949 57 235 0.0 0.0 0.00 0.00 0.00 75 1021.7
20260503034447 56 235 0.0 0.0 0.00 0.00 0.00 75 1021.6
20260503033940 56 235 0.0 0.0 0.00 0.00 0.00 74 1021.5
20260503033503 57 235 0.0 0.0 0.00 0.00 0.00 74 1021.5
20260503032935 57 235 0.0 0.0 0.00 0.00 0.00 74 1021.5
20260503032433 57 235 0.0 0.0 0.00 0.00 0.00 74 1021.5
20260503031946 57 235 0.0 0.0 0.00 0.00 0.00 75 1021.6
20260503031443 57 235 0.0 0.0 0.00 0.00 0.00 76 1021.7
20260503030955 57 235 0.0 0.0 0.00 0.00 0.00 75 1021.6
20260503030427 57 235 0.0 0.0 0.00 0.00 0.00 76 1021.6
20260503025941 57 235 0.0 0.0 0.00 0.00 0.00 76 1021.6
20260503025439 57 235 0.0 0.0 0.00 0.00 0.00 76 1021.6
20260503024932 57 235 0.0 0.0 0.00 0.00 0.00 75 1021.7
20260503024458 57 235 0.0 0.0 0.00 0.00 0.00 75 1021.6
20260503023947 57 235 0.0 0.0 0.00 0.00 0.00 75 1021.5
20260503023445 57 235 0.0 0.0 0.00 0.00 0.00 75 1021.6
20260503022935 57 235 0.0 0.0 0.00 0.00 0.00 75 1021.7
20260503022438 57 235 0.0 0.0 0.00 0.00 0.00 74 1021.7
20260503022011 58 235 0.0 0.0 0.00 0.00 0.00 75 1021.8
20260503021445 58 235 0.0 0.0 0.00 0.00 0.00 75 1021.7
20260503020957 58 235 0.0 0.0 0.00 0.00 0.00 74 1021.7
20260503020502 58 235 0.0 0.0 0.00 0.00 0.00 74 1021.6
20260503015933 58 235 0.0 0.0 0.00 0.00 0.00 74 1021.6
20260503015427 58 235 0.0 0.0 0.00 0.00 0.00 74 1021.7
20260503014941 58 235 0.0 0.0 0.00 0.00 0.00 74 1021.6
20260503014438 58 235 0.0 0.0 0.00 0.00 0.00 74 1021.7
20260503013930 59 235 0.0 0.0 0.00 0.00 0.00 74 1021.7
20260503013517 59 235 0.0 0.0 0.00 0.00 0.00 73 1021.7
20260503012953 59 235 0.0 0.0 0.00 0.00 0.00 73 1021.8
20260503012430 59 235 0.0 0.0 0.00 0.00 0.00 73 1021.8
20260503011943 59 235 0.0 0.0 0.00 0.00 0.00 73 1021.8
20260503011434 59 235 0.0 0.0 0.00 0.00 0.00 72 1021.8
20260503011005 59 235 0.0 0.0 0.00 0.00 0.00 72 1021.9
20260503010443 59 235 0.0 0.0 0.00 0.00 0.00 73 1021.9
20260503005936 59 235 0.0 0.0 0.00 0.00 0.00 72 1021.8
20260503005434 59 235 0.0 0.0 0.00 0.00 0.00 73 1021.9
20260503004946 59 235 0.0 0.0 0.00 0.00 0.00 72 1021.9
20260503004442 59 235 0.0 0.0 0.00 0.00 0.00 72 1022.0
20260503003935 60 235 0.0 0.0 0.00 0.00 0.00 72 1022.1
20260503003441 60 235 0.0 0.0 0.00 0.00 0.00 72 1022.1
20260503002948 60 235 0.0 0.0 0.00 0.00 0.00 72 1022.1